| time (UTC) | temp F | wind direction | speed MPH | gust MPH | rain 1hr in | rain 24hr in | rain mn in | humidity % | barometer mb |
| 20260506212016 | 73 | 270 | 5.0 | 12.0 | 0.00 | 0.00 | 0.00 | 42 | 1019.3 |
| 20260506211016 | 73 | 315 | 5.0 | 11.0 | 0.00 | 0.00 | 0.00 | 41 | 1019.3 |
| 20260506210016 | 72 | 293 | 4.0 | 10.0 | 0.00 | 0.00 | 0.00 | 42 | 1019.3 |
| 20260506205036 | 72 | 338 | 6.0 | 11.0 | 0.00 | 0.00 | 0.00 | 42 | 1019.4 |
| 20260506204015 | 72 | 338 | 7.0 | 13.0 | 0.00 | 0.00 | 0.00 | 42 | 1019.7 |
| 20260506203016 | 71 | 315 | 6.0 | 11.0 | 0.00 | 0.00 | 0.00 | 44 | 1019.7 |
| 20260506202036 | 70 | 0 | 4.0 | 10.0 | 0.00 | 0.00 | 0.00 | 44 | 1019.8 |
| 20260506201016 | 70 | 338 | 4.0 | 10.0 | 0.00 | 0.00 | 0.00 | 45 | 1019.8 |
| 20260506200016 | 70 | 293 | 5.0 | 11.0 | 0.00 | 0.00 | 0.00 | 46 | 1020.0 |
| 20260506195016 | 70 | 293 | 4.0 | 8.0 | 0.00 | 0.00 | 0.00 | 46 | 1019.9 |
| 20260506194156 | 69 | 293 | 2.0 | 7.0 | 0.00 | 0.00 | 0.00 | 47 | 1020.1 |
| 20260506193016 | 68 | 0 | 4.0 | 8.0 | 0.00 | 0.00 | 0.00 | 47 | 1020.1 |
| 20260506192035 | 68 | 338 | 4.0 | 11.0 | 0.00 | 0.00 | 0.00 | 48 | 1020.3 |
| 20260506191015 | 67 | 338 | 3.0 | 9.0 | 0.00 | 0.00 | 0.00 | 48 | 1020.4 |
| 20260506190015 | 67 | 270 | 4.0 | 8.0 | 0.00 | 0.00 | 0.00 | 48 | 1020.3 |
| 20260506185015 | 66 | 45 | 3.0 | 8.0 | 0.00 | 0.00 | 0.00 | 49 | 1020.4 |
| 20260506184015 | 66 | 338 | 2.0 | 8.0 | 0.00 | 0.00 | 0.00 | 50 | 1020.5 |
| 20260506183035 | 65 | 0 | 5.0 | 8.0 | 0.00 | 0.00 | 0.00 | 51 | 1020.5 |
| 20260506182015 | 66 | 293 | 4.0 | 13.0 | 0.00 | 0.00 | 0.00 | 51 | 1020.6 |
| 20260506181015 | 65 | 315 | 5.0 | 9.0 | 0.00 | 0.00 | 0.00 | 51 | 1020.7 |
| 20260506180015 | 64 | 293 | 6.0 | 11.0 | 0.00 | 0.00 | 0.00 | 52 | 1020.5 |
| 20260506175036 | 64 | 315 | 5.0 | 8.0 | 0.00 | 0.00 | 0.00 | 52 | 1020.6 |
| 20260506174015 | 64 | 293 | 5.0 | 9.0 | 0.00 | 0.00 | 0.00 | 52 | 1020.6 |
| 20260506172036 | 63 | 338 | 5.0 | 10.0 | 0.00 | 0.00 | 0.00 | 53 | 1020.6 |
| 20260506171055 | 63 | 293 | 5.0 | 10.0 | 0.00 | 0.00 | 0.00 | 53 | 1020.8 |
| 20260506170015 | 63 | 315 | 4.0 | 9.0 | 0.00 | 0.00 | 0.00 | 54 | 1020.9 |
| 20260506165016 | 62 | 270 | 3.0 | 9.0 | 0.00 | 0.00 | 0.00 | 54 | 1020.8 |
| 20260506164015 | 62 | 270 | 3.0 | 7.0 | 0.00 | 0.00 | 0.00 | 54 | 1020.8 |
| 20260506163015 | 61 | 315 | 3.0 | 6.0 | 0.00 | 0.00 | 0.00 | 55 | 1020.8 |
| 20260506162017 | 60 | 315 | 5.0 | 9.0 | 0.00 | 0.00 | 0.00 | 55 | 1020.9 |
| 20260506161017 | 60 | 293 | 3.0 | 7.0 | 0.00 | 0.00 | 0.00 | 56 | 1020.9 |
| 20260506160017 | 59 | 315 | 1.0 | 6.0 | 0.00 | 0.00 | 0.00 | 57 | 1021.0 |
| 20260506155037 | 59 | 293 | 3.0 | 7.0 | 0.00 | 0.00 | 0.00 | 57 | 1020.8 |
| 20260506154037 | 58 | 293 | 2.0 | 5.0 | 0.00 | 0.00 | 0.00 | 57 | 1020.9 |
| 20260506153017 | 58 | 293 | 1.0 | 3.0 | 0.00 | 0.00 | 0.00 | 58 | 1020.9 |
| 20260506152037 | 58 | 315 | 2.0 | 5.0 | 0.00 | 0.00 | 0.00 | 58 | 1020.9 |
| 20260506151017 | 58 | 293 | 2.0 | 4.0 | 0.00 | 0.00 | 0.00 | 58 | 1020.9 |
| 20260506150017 | 58 | 293 | 2.0 | 4.0 | 0.00 | 0.00 | 0.00 | 58 | 1020.9 |
| 20260506145017 | 58 | 338 | 2.0 | 6.0 | 0.00 | 0.00 | 0.00 | 58 | 1021.0 |
| 20260506144017 | 58 | 270 | 2.0 | 6.0 | 0.00 | 0.00 | 0.00 | 58 | 1021.0 |
| 20260506143017 | 57 | 315 | 2.0 | 4.0 | 0.00 | 0.00 | 0.00 | 60 | 1020.9 |
| 20260506142017 | 57 | 293 | 1.0 | 4.0 | 0.00 | 0.00 | 0.00 | 60 | 1020.9 |
| 20260506141017 | 57 | 270 | 1.0 | 3.0 | 0.00 | 0.00 | 0.00 | 60 | 1020.7 |
| 20260506140017 | 56 | 293 | 1.0 | 3.0 | 0.00 | 0.00 | 0.00 | 60 | 1020.5 |
| 20260506135037 | 56 | 0.0 | 2.0 | 0.00 | 0.00 | 0.00 | 61 | 1020.4 | |
| 20260506134017 | 56 | 0.0 | 2.0 | 0.00 | 0.00 | 0.00 | 61 | 1020.2 | |
| 20260506133017 | 56 | 0.0 | 2.0 | 0.00 | 0.00 | 0.00 | 61 | 1020.1 | |
| 20260506132017 | 56 | 0.0 | 2.0 | 0.00 | 0.00 | 0.00 | 60 | 1020.1 | |
| 20260506131017 | 56 | 0.0 | 1.0 | 0.00 | 0.00 | 0.00 | 60 | 1020.0 | |
| 20260506130016 | 56 | 0.0 | 1.0 | 0.00 | 0.00 | 0.00 | 60 | 1019.9 | |
| 20260506125036 | 56 | 0.0 | 1.0 | 0.00 | 0.00 | 0.00 | 60 | 1019.9 | |
| 20260506124036 | 56 | 338 | 1.0 | 4.0 | 0.00 | 0.00 | 0.00 | 60 | 1019.9 |
| 20260506123016 | 56 | 338 | 2.0 | 5.0 | 0.00 | 0.00 | 0.00 | 60 | 1019.9 |
| 20260506122016 | 56 | 315 | 1.0 | 4.0 | 0.00 | 0.00 | 0.00 | 60 | 1019.8 |
| 20260506121036 | 56 | 338 | 2.0 | 4.0 | 0.00 | 0.00 | 0.00 | 60 | 1019.8 |
| 20260506120017 | 56 | 338 | 2.0 | 4.0 | 0.00 | 0.00 | 0.00 | 60 | 1019.7 |
| 20260506115016 | 56 | 315 | 2.0 | 6.0 | 0.00 | 0.00 | 0.00 | 61 | 1019.7 |
| 20260506114037 | 56 | 315 | 1.0 | 3.0 | 0.00 | 0.00 | 0.00 | 61 | 1019.6 |
| 20260506113016 | 56 | 315 | 1.0 | 3.0 | 0.00 | 0.00 | 0.00 | 62 | 1019.5 |
| 20260506112016 | 56 | 0.0 | 1.0 | 0.00 | 0.00 | 0.00 | 62 | 1019.4 | |
| 20260506111017 | 56 | 0.0 | 2.0 | 0.00 | 0.00 | 0.00 | 62 | 1019.5 | |
| 20260506110017 | 56 | 0.0 | 0.0 | 0.00 | 0.00 | 0.00 | 62 | 1019.5 | |
| 20260506105017 | 56 | 0.0 | 0.0 | 0.00 | 0.00 | 0.00 | 62 | 1019.5 | |
| 20260506104016 | 56 | 0.0 | 0.0 | 0.00 | 0.00 | 0.00 | 62 | 1019.3 | |
| 20260506103017 | 56 | 0.0 | 0.0 | 0.00 | 0.00 | 0.00 | 62 | 1019.3 | |
| 20260506102016 | 56 | 0.0 | 3.0 | 0.00 | 0.00 | 0.00 | 62 | 1019.5 | |
| 20260506101016 | 56 | 293 | 1.0 | 3.0 | 0.00 | 0.00 | 0.00 | 62 | 1019.3 |
| 20260506100016 | 57 | 0.0 | 1.0 | 0.00 | 0.00 | 0.00 | 62 | 1019.3 | |
| 20260506095036 | 57 | 0.0 | 2.0 | 0.00 | 0.00 | 0.00 | 61 | 1019.3 | |
| 20260506094016 | 57 | 293 | 1.0 | 2.0 | 0.00 | 0.00 | 0.00 | 61 | 1019.4 |
| 20260506093016 | 57 | 0.0 | 1.0 | 0.00 | 0.00 | 0.00 | 61 | 1019.5 | |
| 20260506092016 | 57 | 270 | 1.0 | 2.0 | 0.00 | 0.00 | 0.00 | 61 | 1019.6 |
| 20260506091016 | 57 | 0.0 | 2.0 | 0.00 | 0.00 | 0.00 | 61 | 1019.7 | |
| 20260506090016 | 57 | 293 | 1.0 | 3.0 | 0.00 | 0.00 | 0.00 | 61 | 1019.6 |
| 20260506085016 | 57 | 0.0 | 1.0 | 0.00 | 0.00 | 0.00 | 61 | 1019.5 | |
| 20260506084036 | 57 | 0.0 | 2.0 | 0.00 | 0.00 | 0.00 | 61 | 1019.4 | |
| 20260506083017 | 57 | 293 | 1.0 | 3.0 | 0.00 | 0.00 | 0.00 | 61 | 1019.5 |
| 20260506082016 | 57 | 270 | 2.0 | 4.0 | 0.00 | 0.00 | 0.00 | 61 | 1019.5 |
| 20260506081016 | 57 | 293 | 3.0 | 7.0 | 0.00 | 0.00 | 0.00 | 61 | 1019.5 |
| 20260506073016 | 57 | 0.0 | 2.0 | 0.00 | 0.00 | 0.00 | 61 | 1019.3 | |
| 20260506072016 | 57 | 0.0 | 4.0 | 0.00 | 0.00 | 0.00 | 61 | 1019.1 | |
| 20260506071016 | 57 | 0.0 | 1.0 | 0.00 | 0.00 | 0.00 | 61 | 1019.1 | |
| 20260506062015 | 58 | 315 | 1.0 | 3.0 | 0.00 | 0.00 | 0.00 | 59 | 1018.7 |
| 20260506061015 | 58 | 338 | 4.0 | 7.0 | 0.00 | 0.00 | 0.00 | 59 | 1018.4 |
| 20260506051037 | 59 | 315 | 2.0 | 5.0 | 0.00 | 0.00 | 0.00 | 57 | 1018.1 |
| 20260506045017 | 59 | 315 | 1.0 | 3.0 | 0.00 | 0.00 | 0.00 | 57 | 1018.0 |
| 20260506044017 | 59 | 293 | 2.0 | 3.0 | 0.00 | 0.00 | 0.00 | 56 | 1018.0 |
| 20260506043017 | 59 | 338 | 2.0 | 5.0 | 0.00 | 0.00 | 0.00 | 56 | 1017.9 |
| 20260506042037 | 59 | 315 | 3.0 | 6.0 | 0.00 | 0.00 | 0.00 | 56 | 1017.8 |
| 20260506041015 | 59 | 338 | 3.0 | 5.0 | 0.00 | 0.00 | 0.00 | 56 | 1017.5 |
| 20260506040017 | 59 | 338 | 3.0 | 7.0 | 0.00 | 0.00 | 0.00 | 56 | 1017.6 |
| 20260506035017 | 59 | 338 | 2.0 | 4.0 | 0.00 | 0.00 | 0.00 | 56 | 1017.5 |
| 20260506034017 | 59 | 315 | 2.0 | 4.0 | 0.00 | 0.00 | 0.00 | 56 | 1017.2 |
| 20260506033017 | 60 | 338 | 4.0 | 9.0 | 0.00 | 0.00 | 0.00 | 56 | 1017.0 |
| 20260506032017 | 60 | 338 | 4.0 | 10.0 | 0.00 | 0.00 | 0.00 | 55 | 1016.9 |
| 20260506031017 | 60 | 338 | 4.0 | 7.0 | 0.00 | 0.00 | 0.00 | 56 | 1016.7 |
| 20260506030017 | 60 | 338 | 4.0 | 5.0 | 0.00 | 0.00 | 0.00 | 55 | 1016.5 |
| 20260506025017 | 60 | 315 | 3.0 | 5.0 | 0.00 | 0.00 | 0.00 | 55 | 1016.5 |
| 20260506024017 | 61 | 0.0 | 1.0 | 0.00 | 0.00 | 0.00 | 54 | 1016.3 | |
| 20260506023017 | 61 | 293 | 1.0 | 2.0 | 0.00 | 0.00 | 0.00 | 54 | 1016.3 |
| 20260506022037 | 61 | 0.0 | 2.0 | 0.00 | 0.00 | 0.00 | 54 | 1016.3 | |
| 20260506021017 | 61 | 0.0 | 1.0 | 0.00 | 0.00 | 0.00 | 54 | 1016.3 | |
| 20260506020017 | 61 | 0.0 | 2.0 | 0.00 | 0.00 | 0.00 | 53 | 1016.3 | |
| 20260506015017 | 61 | 338 | 2.0 | 4.0 | 0.00 | 0.00 | 0.00 | 53 | 1016.4 |
| 20260506014037 | 61 | 0 | 2.0 | 5.0 | 0.00 | 0.00 | 0.00 | 53 | 1016.3 |
| 20260506013017 | 61 | 315 | 2.0 | 5.0 | 0.00 | 0.00 | 0.00 | 53 | 1016.3 |
| 20260506012017 | 61 | 315 | 2.0 | 4.0 | 0.00 | 0.00 | 0.00 | 53 | 1016.3 |
| 20260506011017 | 61 | 0 | 3.0 | 5.0 | 0.00 | 0.00 | 0.00 | 52 | 1016.4 |
| 20260506010017 | 61 | 338 | 2.0 | 4.0 | 0.00 | 0.00 | 0.00 | 53 | 1016.2 |
| 20260506005016 | 61 | 338 | 1.0 | 3.0 | 0.00 | 0.00 | 0.00 | 53 | 1016.2 |
| 20260506004016 | 61 | 0 | 1.0 | 3.0 | 0.00 | 0.00 | 0.00 | 53 | 1016.3 |
| 20260506003016 | 61 | 0 | 3.0 | 6.0 | 0.00 | 0.00 | 0.00 | 53 | 1016.2 |
| 20260506002017 | 61 | 0 | 1.0 | 3.0 | 0.00 | 0.00 | 0.00 | 53 | 1016.2 |
| 20260506001037 | 61 | 23 | 1.0 | 3.0 | 0.00 | 0.00 | 0.00 | 53 | 1016.1 |
| 20260506000017 | 61 | 23 | 2.0 | 9.0 | 0.00 | 0.00 | 0.00 | 53 | 1015.9 |
| 20260505235017 | 61 | 45 | 1.0 | 4.0 | 0.00 | 0.00 | 0.00 | 53 | 1016.0 |
| 20260505234117 | 61 | 338 | 3.0 | 8.0 | 0.00 | 0.00 | 0.00 | 53 | 1015.9 |
| 20260505233016 | 61 | 45 | 2.0 | 5.0 | 0.00 | 0.00 | 0.00 | 53 | 1015.9 |
| 20260505232017 | 61 | 0 | 4.0 | 8.0 | 0.00 | 0.00 | 0.00 | 52 | 1016.0 |
| 20260505231016 | 61 | 315 | 2.0 | 4.0 | 0.00 | 0.00 | 0.00 | 53 | 1016.0 |
| 20260505230016 | 61 | 315 | 1.0 | 4.0 | 0.00 | 0.00 | 0.00 | 52 | 1016.0 |
| 20260505225016 | 61 | 293 | 1.0 | 4.0 | 0.00 | 0.00 | 0.00 | 53 | 1016.1 |
| 20260505224016 | 61 | 0.0 | 1.0 | 0.00 | 0.00 | 0.00 | 53 | 1016.2 | |
| 20260505223016 | 61 | 338 | 2.0 | 4.0 | 0.00 | 0.00 | 0.00 | 53 | 1016.2 |
| 20260505222016 | 61 | 315 | 1.0 | 7.0 | 0.00 | 0.00 | 0.00 | 53 | 1016.3 |
| 20260505221016 | 61 | 315 | 2.0 | 7.0 | 0.00 | 0.00 | 0.00 | 53 | 1016.4 |
| 20260505220016 | 60 | 0 | 2.0 | 5.0 | 0.00 | 0.00 | 0.00 | 53 | 1016.3 |
| 20260505215016 | 60 | 270 | 2.0 | 7.0 | 0.00 | 0.00 | 0.00 | 53 | 1016.4 |
| 20260505214016 | 60 | 293 | 2.0 | 5.0 | 0.00 | 0.00 | 0.00 | 54 | 1016.4 |
| 20260505213116 | 60 | 338 | 2.0 | 7.0 | 0.00 | 0.00 | 0.00 | 53 | 1016.5 |